TimeCST,TemperatureF,Dew PointF,Humidity,Sea Level PressureIn,VisibilityMPH,Wind Direction,Wind SpeedMPH,Gust SpeedMPH,PrecipitationIn,Events,Conditions,WindDirDegrees,DateUTC
12:15 AM,33.8,32.0,93,30.36,10.0,Calm,Calm,-,N/A,,Clear,0,2012-11-16 06:15:00
12:35 AM,35.6,32.0,87,30.36,10.0,Calm,Calm,-,N/A,,Clear,0,2012-11-16 06:35:00
12:55 AM,33.8,32.0,93,30.36,10.0,Calm,Calm,-,N/A,,Clear,0,2012-11-16 06:55:00
1:15 AM,33.8,32.0,93,30.36,10.0,Calm,Calm,-,N/A,,Clear,0,2012-11-16 07:15:00
1:35 AM,32.0,32.0,100,30.37,10.0,Calm,Calm,-,N/A,,Clear,0,2012-11-16 07:35:00
1:55 AM,33.8,32.0,93,30.37,10.0,Calm,Calm,-,N/A,,Clear,0,2012-11-16 07:55:00
2:15 AM,33.8,32.0,93,30.37,10.0,Calm,Calm,-,N/A,,Clear,0,2012-11-16 08:15:00
2:35 AM,32.0,32.0,100,30.37,10.0,Calm,Calm,-,N/A,,Clear,0,2012-11-16 08:35:00
2:55 AM,32.0,32.0,100,30.37,10.0,Calm,Calm,-,N/A,,Clear,0,2012-11-16 08:55:00
3:15 AM,32.0,32.0,100,30.37,10.0,Calm,Calm,-,N/A,,Clear,0,2012-11-16 09:15:00
3:35 AM,32.0,32.0,100,30.37,10.0,Calm,Calm,-,N/A,,Clear,0,2012-11-16 09:35:00
3:55 AM,33.8,32.0,93,30.37,10.0,Calm,Calm,-,N/A,,Clear,0,2012-11-16 09:55:00
4:15 AM,33.8,32.0,93,30.37,10.0,Calm,Calm,-,N/A,,Clear,0,2012-11-16 10:15:00
4:35 AM,33.8,32.0,93,30.37,10.0,Calm,Calm,-,N/A,,Clear,0,2012-11-16 10:35:00
4:55 AM,35.6,33.8,93,30.37,10.0,North,3.5,-,N/A,,Clear,350,2012-11-16 10:55:00
5:15 AM,32.0,32.0,100,30.38,10.0,North,3.5,-,N/A,,Clear,350,2012-11-16 11:15:00
5:35 AM,33.8,32.0,93,30.38,10.0,Calm,Calm,-,N/A,,Clear,0,2012-11-16 11:35:00
7:55 AM,33.8,32.0,93,30.41,10.0,Calm,Calm,-,N/A,,Clear,0,2012-11-16 13:55:00
9:55 AM,51.8,41.0,67,30.44,10.0,Calm,Calm,-,N/A,,Clear,0,2012-11-16 15:55:00
11:55 AM,62.6,37.4,39,30.41,10.0,Calm,Calm,-,N/A,,Clear,0,2012-11-16 17:55:00
10:35 PM,35.6,33.8,93,30.37,10.0,Calm,Calm,-,N/A,,Clear,0,2012-11-17 04:35:00
10:55 PM,35.6,33.8,93,30.37,10.0,Calm,Calm,-,N/A,,Clear,0,2012-11-17 04:55:00
11:15 PM,33.8,33.8,100,30.37,10.0,Calm,Calm,-,N/A,,Clear,0,2012-11-17 05:15:00
11:35 PM,33.8,33.8,100,30.37,10.0,Calm,Calm,-,N/A,,Clear,0,2012-11-17 05:35:00
11:55 PM,33.8,33.8,100,30.36,7.0,Calm,Calm,-,N/A,,Clear,0,2012-11-17 05:55:00